Back to catalog

STARLINK-35097

AliveCommunicationsSSO
NORAD 65393·PAYLOAD·🇺🇸 United States

Launched Aug 30, 2025 from Vandenberg Space Force Base

Loading…

Next Passes (next 24 hours)

TLE

FreshSource: CelesTrak SupGP

Epoch: Sep 14, 2026, 15:33 UTC

1 65393C 25191Q   26257.64840278  .00003512  00000+0  10899-3 0  2572
2 65393  97.2839 123.8053 0001769  86.3024 326.3204 15.33440786    16

Track STARLINK-35097 in real time with AllMySat

Download on the App Store